Flag for U.S.A. Weather past 2 weeks in Boise, Idaho, U.S.A.

Now
82 °F

Sunny.


Feels Like: 80 °F
Forecast: 71 / 96 °F
Wind: 21 mph from East

Location: Boise Air Terminal

Current Time: Jul 31, 2014 at 10:05:57 PM

Latest Report: Jul 31, 2014 at 8:53 PM


Visibility: 10 mi

Pressure: 29.96 "Hg

Humidity: 29%

Dew point: 47 °F

Location of BoiseLocation

Historic Weather in Boise — Graph

°F

Boise temperature yesterday

Maximum temperature yesterday: 95 °F (at 5:53 PM)
Minimum temperature yesterday: 73 °F (at 5:53 AM)
Average temperature yesterday: 82 °F

Past Weeks' High & Low Weather Summary

 TemperatureHumidityPressure
High100 °F (Jul 28, 4:53 PM)81% (Jul 23, 6:53 AM)30.16 "Hg (Jul 23, 6:53 AM)
Low52 °F (Jul 25, 6:53 AM)7% (Jul 18, 3:53 PM)29.63 "Hg (Jul 20, 6:53 PM)
Average79 °F31%29.92 "Hg
* Reported Jul 16 8:53 PM — Jul 31 8:53 PM, Boise, Weather by CustomWeather, © 2014

Note: Actual official high and low records may vary slightly from our data, if they occured in-between our weather recording intervals... More about our weather records

Advertising

Boise weather history for previous 24 hours

 ConditionsComfort  
Time TempWeatherWind HumidityBarometerVisibility
8:53 PM
Jul 31
82 °FSunny.21 mph29%29.96 "Hg10 mi
7:53 PM86 °FPassing clouds.29 mph24%29.94 "Hg7 mi
6:53 PM94 °FSunny.14 mph21%29.91 "Hg10 mi
5:53 PM95 °FSunny.8 mph17%29.91 "Hg10 mi
4:53 PM95 °FSunny.8 mph18%29.91 "Hg10 mi
3:53 PM95 °FSunny.9 mph18%29.92 "Hg10 mi
2:53 PM93 °FSunny.5 mph20%29.94 "Hg10 mi
1:53 PM92 °FSunny.5 mph21%29.98 "Hg10 mi
12:53 PM89 °FSunny.No wind23%30.01 "Hg10 mi
11:53 AM87 °FSunny.No wind25%30.02 "Hg10 mi
10:53 AM82 °FSunny.No wind29%30.03 "Hg10 mi
9:53 AM80 °FSunny.No wind31%30.03 "Hg10 mi
8:53 AM76 °FSunny.No wind36%30.03 "Hg10 mi
7:53 AM71 °FClear.3 mph45%30.03 "Hg10 mi
6:53 AM68 °FClear.5 mph51%30.02 "Hg10 mi
5:53 AM70 °FClear.3 mph44%30.00 "Hg10 mi
4:53 AM72 °FClear.6 mph41%29.99 "Hg10 mi
3:53 AM74 °FClear.9 mph38%29.99 "Hg10 mi
2:53 AM76 °FClear.12 mph36%29.99 "Hg10 mi
1:53 AM77 °FClear.7 mph33%30.00 "Hg10 mi
12:53 AM78 °FClear.16 mph33%30.00 "Hg10 mi
11:53 PM
Jul 30
79 °FClear.6 mph31%29.99 "Hg10 mi
10:53 PM82 °FSunny.5 mph26%29.99 "Hg10 mi
Weather by CustomWeather, © 2014

See weather overviewHow to use our weather pages